TimeIST,TemperatureF,Dew PointF,Humidity,Sea Level PressureIn,VisibilityMPH,Wind Direction,Wind SpeedMPH,Gust SpeedMPH,PrecipitationIn,Events,Conditions,WindDirDegrees,DateUTC
12:40 AM,75.2,73.4,94,29.74,1.9,WSW,8.1,-,N/A,Rain,Rain,250,2013-08-16 19:10:00
1:10 AM,75.2,73.4,94,29.74,1.9,WSW,8.1,-,N/A,Rain,Rain,240,2013-08-16 19:40:00
2:10 AM,75.2,73.4,94,29.74,2.5,SW,5.8,-,N/A,Rain,Light Rain,220,2013-08-16 20:40:00
2:30 AM,75,74,94,29.75,1,WSW,2.3,,,Rain,Light Rain,250,2013-08-16 21:00:00
2:40 AM,75.2,73.4,94,29.74,2.5,SSW,8.1,-,N/A,Rain,Light Rain,210,2013-08-16 21:10:00
3:10 AM,75.2,73.4,94,29.71,2.5,SW,8.1,-,N/A,Rain,Light Rain,220,2013-08-16 21:40:00
3:40 AM,75.2,73.4,94,29.71,2.5,SW,8.1,-,N/A,Rain,Light Rain,230,2013-08-16 22:10:00
4:10 AM,75.2,73.4,94,29.71,2.5,WSW,8.1,-,N/A,Rain,Light Rain,240,2013-08-16 22:40:00
5:10 AM,75.2,73.4,94,29.71,3.1,SW,11.5,-,N/A,,Light Drizzle,230,2013-08-16 23:40:00
5:30 AM,75,74,94,29.74,2,WSW,2.3,,,Rain,Light Drizzle,250,2013-08-17 00:00:00
5:40 AM,75.2,73.4,94,29.71,3.1,SW,8.1,-,N/A,,Light Drizzle,220,2013-08-17 00:10:00
6:10 AM,75.2,73.4,94,29.71,3.1,SW,11.5,-,N/A,,Haze,230,2013-08-17 00:40:00
6:40 AM,75.2,73.4,94,29.71,3.1,SW,8.1,-,N/A,,Haze,230,2013-08-17 01:10:00
7:10 AM,77.0,73.4,89,29.74,3.1,SW,9.2,-,N/A,,Haze,220,2013-08-17 01:40:00
7:40 AM,78.8,73.4,83,29.74,3.1,SW,6.9,-,N/A,,Haze,230,2013-08-17 02:10:00
8:10 AM,78.8,73.4,83,29.74,3.1,WSW,5.8,-,N/A,,Haze,240,2013-08-17 02:40:00
8:30 AM,78,75,87,29.78,2,Calm,Calm,,,,Partly Cloudy,,2013-08-17 03:00:00
8:40 AM,78.8,73.4,83,29.74,3.1,SW,8.1,-,N/A,,Haze,230,2013-08-17 03:10:00
9:40 AM,80.6,73.4,79,29.74,3.7,SSW,9.2,-,N/A,,Mostly Cloudy,210,2013-08-17 04:10:00
10:10 AM,82.4,73.4,74,29.74,3.7,SW,8.1,-,N/A,,Mostly Cloudy,220,2013-08-17 04:40:00
10:40 AM,82.4,73.4,74,29.74,3.7,SW,10.4,-,N/A,,Mostly Cloudy,230,2013-08-17 05:10:00
11:10 AM,84.2,73.4,70,29.74,3.7,WSW,11.5,-,N/A,,Mostly Cloudy,240,2013-08-17 05:40:00
11:30 AM,85,74,64,29.75,6,WNW,3.5,,,,Partly Cloudy,290,2013-08-17 06:00:00
11:40 AM,84.2,73.4,70,29.71,3.7,SW,10.4,-,N/A,,Mostly Cloudy,230,2013-08-17 06:10:00
12:10 PM,86.0,77.0,74,29.71,4.3,WSW,6.9,-,N/A,,Mostly Cloudy,250,2013-08-17 06:40:00
12:40 PM,87.8,73.4,62,29.68,4.3,WSW,12.7,-,N/A,,Mostly Cloudy,240,2013-08-17 07:10:00
1:10 PM,87.8,75.2,66,29.68,4.3,SSW,9.2,-,N/A,,Mostly Cloudy,210,2013-08-17 07:40:00
1:40 PM,87.8,75.2,66,29.65,4.3,SW,11.5,-,N/A,,Mostly Cloudy,220,2013-08-17 08:10:00
2:10 PM,89.6,73.4,59,29.65,4.3,SW,13.8,-,N/A,,Mostly Cloudy,230,2013-08-17 08:40:00
2:30 PM,90,74,51,29.68,6,SSW,4.6,,,,Partly Cloudy,200,2013-08-17 09:00:00
2:40 PM,89.6,71.6,55,29.65,4.3,WSW,15.0,-,N/A,,Mostly Cloudy,240,2013-08-17 09:10:00
3:10 PM,89.6,73.4,59,29.62,4.3,West,13.8,-,N/A,,Mostly Cloudy,260,2013-08-17 09:40:00
3:40 PM,87.8,73.4,62,29.62,4.3,SW,13.8,-,N/A,,Mostly Cloudy,230,2013-08-17 10:10:00
4:10 PM,87.8,73.4,62,29.62,4.3,SW,11.5,-,N/A,,Mostly Cloudy,220,2013-08-17 10:40:00
4:40 PM,87.8,75.2,66,29.62,4.3,SSW,11.5,-,N/A,,Mostly Cloudy,210,2013-08-17 11:10:00
5:10 PM,86.0,75.2,70,29.62,3.7,SSW,9.2,-,N/A,,Mostly Cloudy,200,2013-08-17 11:40:00
5:30 PM,86,76,66,29.67,6,Calm,Calm,,,,Partly Cloudy,,2013-08-17 12:00:00
5:40 PM,86.0,73.4,66,29.62,3.7,SSW,8.1,-,N/A,,Mostly Cloudy,200,2013-08-17 12:10:00
6:10 PM,86.0,73.4,66,29.65,3.7,South,5.8,-,N/A,,Mostly Cloudy,180,2013-08-17 12:40:00
6:40 PM,86.0,75.2,70,29.65,3.7,SSW,5.8,-,N/A,,Mostly Cloudy,200,2013-08-17 13:10:00
7:10 PM,84.2,75.2,74,29.68,3.7,South,5.8,-,N/A,,Mostly Cloudy,180,2013-08-17 13:40:00
7:40 PM,84.2,77.0,79,29.68,3.7,South,5.8,-,N/A,,Mostly Cloudy,180,2013-08-17 14:10:00
8:10 PM,84.2,77.0,79,29.71,3.7,South,6.9,-,N/A,,Mostly Cloudy,180,2013-08-17 14:40:00
8:30 PM,84,78,78,29.75,2,NW,2.3,,,,Overcast,320,2013-08-17 15:00:00
8:40 PM,82.4,77.0,84,29.74,3.7,WSW,3.5,-,N/A,,Mostly Cloudy,250,2013-08-17 15:10:00
9:10 PM,82.4,77.0,84,29.74,3.7,South,4.6,-,N/A,,Mostly Cloudy,170,2013-08-17 15:40:00
9:40 PM,82.4,77.0,84,29.74,3.7,South,4.6,-,N/A,,Mostly Cloudy,180,2013-08-17 16:10:00
10:10 PM,82.4,77.0,84,29.74,3.7,South,4.6,-,N/A,,Mostly Cloudy,190,2013-08-17 16:40:00
10:40 PM,82.4,77.0,84,29.77,3.7,Calm,Calm,-,N/A,,Mostly Cloudy,0,2013-08-17 17:10:00
11:10 PM,82.4,77.0,84,29.77,3.7,Variable,3.5,-,N/A,,Mostly Cloudy,0,2013-08-17 17:40:00
11:30 PM,82,79,89,29.76,2,Calm,Calm,,,Rain,Light Drizzle,,2013-08-17 18:00:00
11:40 PM,80.6,77.0,89,29.74,3.7,Variable,3.5,-,N/A,,Light Drizzle,0,2013-08-17 18:10:00